Regional Weather Roundup
Issued by NWS Newport/Morehead, NC

Current Version | Previous Version | Graphics & Text | Print | Product List | Glossary On
Versions: 1 2 3 4 5 6 7 8 9 10 11 12 13 14 15 16 17 18 19 20 21 22 23 24 25 26 27 28 29 30 31 32 33 34 35 36 37 38 39 40 41 42 43 44 45 46 47 48 49 50
000 ASUS42 KMHX 201613 RWRMHX WEATHER ROUNDUP FOR EASTERN NORTH CAROLINA NATIONAL WEATHER SERVICE NEWPORT/MOREHEAD CITY NC 1100 AM EST MON FEB 20 2017 NOTE: "FAIR" INDICATES FEW OR NO CLOUDS BELOW 12,000 FEET WITH NO SIGNIFICANT WEATHER AND/OR OBSTRUCTIONS TO VISIBILITY NCZ015>017-031-032-045>047-102-103-201700- NORTH COAST CITY SKY/WX TMP DP RH WIND PRES REMARKS EDENTON SUNNY 65 40 39 N9G16 30.23S ELIZABETH CITY SUNNY 64 40 41 N13 30.22R KITTY HAWK NOT AVBL MANTEO SUNNY 58 42 56 NE14 30.22R $$ NCZ045>047-081-094-103-104-201700- CENTRAL COAST CITY SKY/WX TMP DP RH WIND PRES REMARKS FRISCO SUNNY 59 45 59 N8G20 30.19R HAZE $$ NCZ095-097-098-100-101-201700- SOUTHERN COAST CITY SKY/WX TMP DP RH WIND PRES REMARKS BEAUFORT SUNNY 66 43 43 NE13G22 30.19F CEDAR ISLAND NOT AVBL JACKSONVILLE SUNNY 67 45 45 E10 30.19F PINEY ISLAND SUNNY N/A N/A N/A N15 30.20S WILMINGTON SUNNY 68 45 43 NE3 30.19S $$ NCZ011>013-027>030-043-044-078>080-089-090>093-098-201700- COASTAL PLAIN CITY SKY/WX TMP DP RH WIND PRES REMARKS AHOSKIE N/A 63 37 37 N9 30.23S CLINTON SUNNY 66 45 46 NE6 30.22S ELIZABETHTOWN SUNNY 65 44 47 N7 30.21S GOLDSBORO SUNNY 67 37 33 NE9 30.21R GREENVILLE SUNNY 68 41 37 N8 30.23S HAVELOCK SUNNY 67 41 38 E12 30.20F KENANSVILLE NOT AVBL KINSTON SUNNY 68 37 32 NE13 30.22S NEW BERN SUNNY 65 42 43 NE9 30.21F RICHLANDS SUNNY 66 45 46 NE9 30.21S ROCKY MOUNT SUNNY 65 39 38 NE9 30.23S WASHINGTON SUNNY 65 41 42 N9 30.21F WHITEVILLE SUNNY 66 44 44 NE6 30.21R $$ AMZ130-135-150-152-154-156-158-170-250-252-270-ANZ085-086-088-633-658-670-201700- MARINE OBSERVATIONS STATION/POSITION TIME TEMP WIND PRES WAVE SWELL AIR SEA DIR/SP/G HT/PER HT/PER (UTC) (F) (DEG/KT/KT) (MB) (FT/S) (FT/S) CHESAPEAKE LIGHT NOT AVBL 64 E VA BEACH 1550 52 51 360/ 12/ 14 1022.4 3/ 5 2/ 8 DUCK 1548 50 48 20/ 12/ 13 1022.9 2 E DUCK 1530 49 N/A 2/ 3 OREGON INLET 1542 53 50 360/ 13/ 17 1022.8 13E OREGON INLT NOT AVBL HATTERAS CG 1548 54 56 10/ 17/ 20 1022.0 DIAMOND BUOY 1550 57 63 10/ 17/ 21 1021.9 3/ 4 CAPE LOOKOUT 1600 58 40/ 17/ 20 1022.1 BEAUFORT LAB 1548 63 52 40/ 8/ 15 1021.3 30 SE NEW RVR IN 1508 60 40/ 14/ 19 1022.4 30 SE NEW RVR IN 1543 63 N/A 3/ 4 27 SE WRIGHTSVLE 1508 59 61 50/ 14/ 17 1022.1 5 SE WRIGHTSVLE 1508 57 56 50/ 6/ 10 1022.2 225 S CAPE HAT 1550 70 71 30/ 16/ 17 1019.6 6/ 6 2/10 41 SE CHARLESTON 1550 65 69 40/ 10/ 12 1021.8 2/ 4 $$

USA.gov is the U.S. government's official web portal to all federal, state and local government web resources and services.